Location: York
(31.8935°S, 116.7682°E)
Time: 17:28:32
(UTC+08:00)

Hubble Space Telescope - Pass Details

Date: 15 May 2021
Orbit: 535 x 539 km, 28.5° (Epoch: 17 June)

Event Time Altitude Azimuth Distance (km) Brightness Sun altitude
Rises 19:39:44 0° 297° (WNW) 2,684 5.4 -28.7°
Reaches altitude 10° 19:42:06 10° 306° (NW) 1,795 4.1 -29.2°
Enters shadow 19:43:51 22° 321° (NW) 1,215 2.9 -29.6°
